Kenosha, WI

5:43 AM CDT on May 28, 2018 (GMT -0500)
Kenosha Regional

Weather History for KENW - May, 2014

Change the Weather History Date:

Thursday, May 22, 2014

  Actual Average Record
Temperature  
Mean Temperature 58 °F -  
Max Temperature 66 °F 62 °F 91 °F (1956)
Min Temperature 48 °F 46 °F 32 °F (2006)
Degree Days  
Heating Degree Days 7    
Growing Degree Days 8 (Base 50)    
Moisture  
Dew Point 48 °F    
Average Humidity 70    
Maximum Humidity 89    
Minimum Humidity 58    
Precipitation  
Precipitation 0.00 in - - ()
Sea Level Pressure  
Sea Level Pressure 30.08 in    
Wind  
Wind Speed 7 mph (ENE)    
Max Wind Speed 12 mph    
Max Gust Speed -    
Visibility 10 miles    
Events      
Averages and records for this station are not official NWS values.
T = Trace of Precipitation, MM = Missing Value Source: NWS Daily Summary

Daily Weather History Graph

Daily Weather History Graph

Search for Another Location

Airport or City:

Astronomy

May. 22, 2014 Rise Set
Actual Time 5:23 AM CDT 8:14 PM CDT
Civil Twilight 4:50 AM CDT 8:47 PM CDT
Nautical Twilight 4:08 AM CDT 9:29 PM CDT
Astronomical Twilight 3:19 AM CDT 10:18 PM CDT
Moon 1:51 AM CDT (5/22) 1:53 PM CDT (5/22)
Length of Visible Light 15h 57m
Length of Day
14h 50m
Last Quarter, 37% of the Moon is Illuminated
May 22
Last Quarter
May 28
New
Jun 5
First Quarter
Jun 12
Full
Jun 19
Last Quarter

Hourly Weather History & Observations

Time (CDT) Temp. Dew Point Humidity Pressure Visibility Wind Dir Wind Speed Gust Speed Precip Events Conditions
12:53 AM 57.9 °F 51.1 °F 78% 29.99 in 10.0 mi North 9.2 mph - N/A   Clear
1:53 AM 55.0 °F 50.0 °F 83% 30.00 in 10.0 mi North 6.9 mph - N/A   Clear
2:53 AM 55.0 °F 50.0 °F 83% 30.00 in 10.0 mi NW 5.8 mph - N/A   Clear
3:53 AM 55.0 °F 48.9 °F 80% 30.01 in 10.0 mi NW 6.9 mph - N/A   Clear
4:53 AM 54.0 °F 48.0 °F 80% 30.01 in 10.0 mi NW 6.9 mph - N/A   Clear
5:53 AM 54.0 °F 48.0 °F 80% 30.03 in 10.0 mi NNW 6.9 mph - N/A   Clear
6:53 AM 57.0 °F 48.9 °F 74% 30.05 in 10.0 mi NNW 5.8 mph - N/A   Clear
7:53 AM 60.1 °F 50.0 °F 69% 30.07 in 10.0 mi North 8.1 mph - N/A   Clear
8:53 AM 63.0 °F 50.0 °F 63% 30.10 in 10.0 mi NE 5.8 mph - N/A   Clear
9:53 AM 64.9 °F 50.0 °F 58% 30.12 in 10.0 mi NE 6.9 mph - N/A   Scattered Clouds
10:53 AM 62.1 °F 50.0 °F 65% 30.13 in 10.0 mi ESE 6.9 mph - N/A   Overcast
11:53 AM 62.1 °F 50.0 °F 65% 30.13 in 10.0 mi East 9.2 mph - N/A   Mostly Cloudy
12:53 PM 62.1 °F 48.9 °F 62% 30.13 in 10.0 mi ESE 8.1 mph - N/A   Partly Cloudy
1:53 PM 62.1 °F 48.9 °F 62% 30.12 in 10.0 mi East 6.9 mph - N/A   Clear
2:53 PM 61.0 °F 48.9 °F 64% 30.11 in 10.0 mi ESE 11.5 mph - N/A   Clear
3:53 PM 61.0 °F 48.0 °F 62% 30.09 in 10.0 mi East 11.5 mph - N/A   Clear
4:53 PM 62.1 °F 48.0 °F 60% 30.09 in 10.0 mi ESE 8.1 mph - N/A   Clear
5:53 PM 61.0 °F 46.9 °F 60% 30.10 in 10.0 mi SE 9.2 mph - N/A   Clear
6:53 PM 60.1 °F 46.9 °F 62% 30.10 in 10.0 mi ESE 6.9 mph - N/A   Clear
7:53 PM 57.9 °F 46.0 °F 65% 30.11 in 10.0 mi SE 6.9 mph - N/A   Clear
8:53 PM 55.0 °F 46.0 °F 72% 30.11 in 10.0 mi South 5.8 mph - N/A   Clear
9:53 PM 52.0 °F 45.0 °F 77% 30.13 in 10.0 mi South 3.5 mph - N/A   Clear
10:53 PM 53.1 °F 46.0 °F 77% 30.13 in 10.0 mi SW 3.5 mph - N/A   Clear
11:53 PM 48.0 °F 45.0 °F 89% 30.14 in 10.0 mi WSW 3.5 mph - N/A   Clear